(274525) = 2008 SY200 = 1999 TN287

Discovered at Kitt Peak on 2008-09-26 by Spacewatch.

Orbit

Orbit type: Main Belt

Note: WebGL enabled browser required.

epoch2024-03-31.0
epoch JD2460400.5
perihelion date2021-04-25.59157
perihelion JD2459330.09157
argument of perihelion (°)292.87877
ascending node (°)19.53044
inclination (°)11.00676
eccentricity0.1526839
perihelion distance (AU)2.2886234
Tisserand w.r.t. Jupiter3.3
ΔV w.r.t. Earth (km/sec)10.1
semimajor axis (AU)2.7010266
mean anomaly (°)237.66219
mean daily motion (°/day)0.22202940
aphelion distance (AU)3.113
period (years)4.44
P-vector [x]0.66875520
P-vector [y]-0.59279427
P-vector [z]-0.44873315
Q-vector [x]0.74073782
Q-vector [y]0.58305886
Q-vector [z]0.33369124
absolute magnitude16.2
phase slope0.15
uncertainty0
referenceMPEC 2024-F28
observations used442
oppositions14
arc length (days)8925
first opposition used1999
last opposition used2024
residual rms (arc-secs)0.66
perturbers coarse indicatorM-v
perturbers precise indicator003Ek
first observation date used1999-10-10.0
last observation date used2024-03-17.0
computer nameMPCLINUX
JD of orbit computation2456670.717040
perihelion JD uncertainty (days)1.4974E-04
argument of perihelion uncertainty (°)4.4731E-05
ascending node uncertainty (°)2.8048E-05
inclination uncertainty (°)1.1602E-05
eccentricity uncertainty 6.0884E-08
perihelion distance uncertainty (AU)1.7563E-07
Minimum Orbit Intersection Distances (in AU)
for orbit epoch: 2460400.5, reference: E2024-GH2
Mercury1.8565
Venus1.56871
Earth1.30211
Mars0.93332
Jupiter2.26758
Saturn6.08103
Uranus15.4028
Neptune27.0839

Observations

454 total observations over interval: 1999 10 10.26080 – 2024 03 17.389400
These data are available for download (format description).

Date (UT) J2000 RA J2000 Dec Magn Location Ref
1999 10 10.26080 01 29 13.67 +09 44 11.0 19.3   704 – Lincoln Laboratory ETS, New Mexico MPS 15487
1999 10 10.29229 01 29 11.63 +09 44 08.0 19.7   704 – Lincoln Laboratory ETS, New Mexico MPS 15487
1999 10 10.30805 01 29 10.70 +09 44 06.8 19.5   704 – Lincoln Laboratory ETS, New Mexico MPS 15487
1999 10 10.32381 01 29 09.71 +09 44 06.0 20.1   704 – Lincoln Laboratory ETS, New Mexico MPS 15487
1999 10 19.20825 01 20 05.77 +09 36 32.8 18.3   704 – Lincoln Laboratory ETS, New Mexico MPS 15487
1999 10 19.22197 01 20 04.81 +09 36 31.7 18.5   704 – Lincoln Laboratory ETS, New Mexico MPS 15487
1999 10 19.23579 01 20 04.13 +09 36 30.2 18.8   704 – Lincoln Laboratory ETS, New Mexico MPS 15487
1999 10 19.24958 01 20 03.14 +09 36 30.3 18.5   704 – Lincoln Laboratory ETS, New Mexico MPS 15487
2002 04 20.18955 12 25 30.45 -00 59 41.9 20.8   644 – Palomar Mountain/NEAT MPS 261721
2002 04 20.25344 12 25 27.24 -00 59 37.5 20.8   644 – Palomar Mountain/NEAT MPS 261721
2002 04 20.32078 12 25 23.87 -00 59 32.2 21.2   644 – Palomar Mountain/NEAT MPS 261721
2003 07 07.38523 22 15 49.22 -28 46 42.8 19.0   644 – Palomar Mountain/NEAT MPS 261721
2003 07 07.40640 22 15 49.04 -28 46 48.4 19.0   644 – Palomar Mountain/NEAT MPS 261721
2003 07 07.42774 22 15 48.84 -28 46 53.8 20.0   644 – Palomar Mountain/NEAT MPS 261721
2008 09 22.42918 02 44 23.23 +18 23 30.4 19.4 V 691 – Steward Observatory, Kitt Peak-Spacewatch MPS 261721
2008 09 22.44678 02 44 22.77 +18 23 32.4 19.8 V 691 – Steward Observatory, Kitt Peak-Spacewatch MPS 261722
2008 09 22.46440 02 44 22.29 +18 23 35.6 20.0 V 691 – Steward Observatory, Kitt Peak-Spacewatch MPS 261722
2008 09 26.36567 02 42 28.79 +18 34 49.0   691 – Steward Observatory, Kitt Peak-Spacewatch MPS 259470
2008 09 26.38329 02 42 28.17 +18 34 51.8   691 – Steward Observatory, Kitt Peak-Spacewatch MPS 259470
2008 09 26.40091 02 42 27.56 +18 34 54.6   691 – Steward Observatory, Kitt Peak-Spacewatch MPS 259470
2008 10 01.36487 02 39 25.39 +18 46 39.8 19.9 V 691 – Steward Observatory, Kitt Peak-Spacewatch MPS 259470
2008 10 01.38592 02 39 24.48 +18 46 42.1 20.0 V 691 – Steward Observatory, Kitt Peak-Spacewatch MPS 259470
2008 10 01.40355 02 39 23.73 +18 46 44.3 20.0 V 691 – Steward Observatory, Kitt Peak-Spacewatch MPS 259470
2008 10 24.15409 02 18 44.68 +19 03 00.7 19.7 V 691 – Steward Observatory, Kitt Peak-Spacewatch MPS 261722
2008 10 24.17175 02 18 43.53 +19 03 00.2 19.6 V 691 – Steward Observatory, Kitt Peak-Spacewatch MPS 261722
2008 10 24.18939 02 18 42.39 +19 02 59.8 19.8 V 691 – Steward Observatory, Kitt Peak-Spacewatch MPS 261722
2008 10 26.14582 02 16 38.45 +19 01 41.2 20.3 V 691 – Steward Observatory, Kitt Peak-Spacewatch MPS 261722
2008 10 26.16347 02 16 37.36 +19 01 40.5 19.6 V 691 – Steward Observatory, Kitt Peak-Spacewatch MPS 261722
2008 10 26.18113 02 16 36.20 +19 01 39.8 19.6 V 691 – Steward Observatory, Kitt Peak-Spacewatch MPS 261722
2008 10 27.26701 02 15 27.06 +19 00 48.6 19.6   704 – Lincoln Laboratory ETS, New Mexico MPS 261722
2008 10 27.27854 02 15 26.35 +19 00 47.6 19.7   704 – Lincoln Laboratory ETS, New Mexico MPS 261722
2008 10 27.30162 02 15 24.74 +19 00 46.1 20.0   704 – Lincoln Laboratory ETS, New Mexico MPS 261722
2008 11 01.24980 02 10 12.21 +18 55 33.2 19.6   704 – Lincoln Laboratory ETS, New Mexico MPS 264656
2008 11 01.24995 02 10 12.05 +18 55 33.4 19.3   704 – Lincoln Laboratory ETS, New Mexico MPS 264656
2008 11 01.26147 02 10 11.41 +18 55 31.1 20.2   704 – Lincoln Laboratory ETS, New Mexico MPS 264656
2008 11 01.26162 02 10 11.26 +18 55 32.4 19.8   704 – Lincoln Laboratory ETS, New Mexico MPS 264656
2008 11 01.27319 02 10 10.71 +18 55 30.2 20.3   704 – Lincoln Laboratory ETS, New Mexico MPS 264656
2008 11 01.27334 02 10 10.53 +18 55 31.0 20.3   704 – Lincoln Laboratory ETS, New Mexico MPS 264656
2008 11 01.28491 02 10 09.86 +18 55 30.0 19.9   704 – Lincoln Laboratory ETS, New Mexico MPS 264656
2008 11 01.28506 02 10 09.79 +18 55 30.7 19.9   704 – Lincoln Laboratory ETS, New Mexico MPS 264656
2008 11 01.29678 02 10 09.17 +18 55 28.9 20.0   704 – Lincoln Laboratory ETS, New Mexico MPS 264656
2008 11 01.29694 02 10 09.02 +18 55 28.7 19.9   704 – Lincoln Laboratory ETS, New Mexico MPS 264656
2008 11 02.26485 02 09 08.76 +18 54 16.6 19.9   704 – Lincoln Laboratory ETS, New Mexico MPS 263366
2008 11 02.27678 02 09 08.00 +18 54 16.2 19.9   704 – Lincoln Laboratory ETS, New Mexico MPS 263366
2008 11 02.30071 02 09 06.41 +18 54 14.9 19.7   704 – Lincoln Laboratory ETS, New Mexico MPS 263366
2008 11 06.27314 02 05 04.20 +18 48 40.3 19.8 V G96 – Mt. Lemmon Survey MPS 263366
2008 11 06.27862 02 05 03.87 +18 48 39.8 19.6 V G96 – Mt. Lemmon Survey MPS 263366
2008 11 06.28419 02 05 03.51 +18 48 39.6 19.4 V G96 – Mt. Lemmon Survey MPS 263366
2008 11 06.28973 02 05 03.19 +18 48 38.8 19.6 V G96 – Mt. Lemmon Survey MPS 263366
2008 11 07.35113 02 04 00.16 +18 47 03.0   291 – LPL/Spacewatch II MPS 263366
2008 11 07.35716 02 03 59.80 +18 47 02.5   291 – LPL/Spacewatch II MPS 263366
2008 11 07.36363 02 03 59.42 +18 47 03.4   291 – LPL/Spacewatch II MPS 263366
2008 11 18.12182 01 54 26.21 +18 29 56.5 19.9 V 691 – Steward Observatory, Kitt Peak-Spacewatch MPS 265314
2008 11 18.13766 01 54 25.44 +18 29 55.1 19.8 V 691 – Steward Observatory, Kitt Peak-Spacewatch MPS 265314
2008 11 18.15101 01 54 24.81 +18 29 53.9 20.0 V 691 – Steward Observatory, Kitt Peak-Spacewatch MPS 265314
2010 01 23.93903 08 39 56.77 +34 30 12.2   587 – Sormano MPS 311910
2011 03 01.43147 13 48 17.96 -09 20 29.3 20.9 V G96 – Mt. Lemmon Survey MPS 372073
2011 03 01.43665 13 48 17.89 -09 20 29.9 20.8 V G96 – Mt. Lemmon Survey MPS 372073
2011 03 01.44190 13 48 17.78 -09 20 30.7 21.0 V G96 – Mt. Lemmon Survey MPS 372073
2011 03 01.44711 13 48 17.71 -09 20 30.9 20.8 V G96 – Mt. Lemmon Survey MPS 372073
2011 03 25.30743 13 35 37.34 -09 24 48.6 20.5 V 691 – Steward Observatory, Kitt Peak-Spacewatch MPS 375615
2011 03 25.32516 13 35 36.47 -09 24 47.6 20.3 V 691 – Steward Observatory, Kitt Peak-Spacewatch MPS 375615
2011 03 25.34289 13 35 35.61 -09 24 46.8 20.4 V 691 – Steward Observatory, Kitt Peak-Spacewatch MPS 375615
2011 04 06.28684 13 25 04.08 -09 08 57.1   691 – Steward Observatory, Kitt Peak-Spacewatch MPS 377227
2011 04 06.30461 13 25 03.04 -09 08 55.7   691 – Steward Observatory, Kitt Peak-Spacewatch MPS 377227
2011 04 06.32240 13 25 01.97 -09 08 53.7   691 – Steward Observatory, Kitt Peak-Spacewatch MPS 377227
2011 04 28.34640 13 04 07.156 -08 29 44.04 20.3 w F51 – Pan-STARRS 1, Haleakala MPS 381148
2011 04 28.35038 13 04 06.950 -08 29 43.61 20.2 w F51 – Pan-STARRS 1, Haleakala MPS 381148
2011 04 28.36048 13 04 06.394 -08 29 42.74 20.5 w F51 – Pan-STARRS 1, Haleakala MPS 381148
2011 04 28.36462 13 04 06.175 -08 29 42.33 20.4 w F51 – Pan-STARRS 1, Haleakala MPS 381148
2011 04 28.37472 13 04 05.623 -08 29 41.52 20.6 w F51 – Pan-STARRS 1, Haleakala MPS 381148
2011 04 28.37870 13 04 05.414 -08 29 40.98 20.5 w F51 – Pan-STARRS 1, Haleakala MPS 381148
2012 08 19.56280 23 14 50.64 -19 32 52.2 18.9 V E12 – Siding Spring Survey MPS 430973
2012 08 19.57272 23 14 50.10 -19 32 53.4 19.2 V E12 – Siding Spring Survey MPS 430973
2012 08 19.58262 23 14 49.63 -19 32 54.7 19.2 V E12 – Siding Spring Survey MPS 430973
2012 09 04.452439 22 59 39.014 -19 56 55.25 18.9 i F51 – Pan-STARRS 1, Haleakala MPS 431299
2012 09 04.465198 22 59 38.209 -19 56 55.65 18.6 i F51 – Pan-STARRS 1, Haleakala MPS 431299
2012 09 21.18082 22 44 01.92 -19 35 57.2 19.2   704 – Lincoln Laboratory ETS, New Mexico MPS 433209
2012 09 21.19545 22 44 01.12 -19 35 54.7 19.8   704 – Lincoln Laboratory ETS, New Mexico MPS 433209
2012 09 21.20999 22 44 00.34 -19 35 52.7 19.3   704 – Lincoln Laboratory ETS, New Mexico MPS 433209
2012 09 21.23948 22 43 58.87 -19 35 49.1 19.5   704 – Lincoln Laboratory ETS, New Mexico MPS 433209
2012 09 22.23235 22 43 11.60 -19 32 46.5 19.5 V 703 – Catalina Sky Survey MPS 434023
2012 09 22.23762 22 43 11.35 -19 32 46.1 19.8 V 703 – Catalina Sky Survey MPS 434023
2012 09 22.24287 22 43 11.10 -19 32 45.0 19.5 V 703 – Catalina Sky Survey MPS 434023
2012 09 22.24802 22 43 10.81 -19 32 43.2 19.1 V 703 – Catalina Sky Survey MPS 434023
